Vanaf de start van Weerstation Assen op 01-04-2009 wordt iedere 5 minuten data gestuurd naar de Weather Underground. In het overzicht hieronder is dit terug te vinden op datum en per 5 minuten.
Test XHTML 1.0 Strict Page for WU-History Testing
Station Historical Data
 
Dagelijks Overzicht voor Maart 23, 2019 Eenheden:  Metrisch    Engels   Beide
« Vorige Dag
Volgende Dag »
Dagelijks Wekelijks Maandelijks Jaarlijks Custom
  Huidig: Hoog: Laag: Gemiddeld:
Temperatuur: 6.4 °C 6.7 °C 6.2 °C 6.4 °C
Dauwpunt: 4.3 °C 4.7 °C 4.3 °C 4.5 °C
Vochtigheid: 86% 89% 86% 87%
Windsnelheid: 0.0km/h 11.1km/h 0.0km/h 1.4km/h
Windvlaag: 0.0km/h 14.5km/h - -
WindCalm - - NW
Luchtdruk: 1026.8 hPa 1027.5 hPa 1026.8 hPa -
Neerslag: 0.0 mm      
Historical Graphs
 
 
Tabel Data voor Maart 23, 2019
Time Temperatuur Dauwpunt Luchtdruk Wind Windsnelheid Windvlaag Vochtigheid Regenval intensiteit (Per uur) Zonkracht Condities
00:00 6.3 °C 4.7 °C 1027.4 hPa NW 4.8 km/h 14.5 km/h 89% 0.0 mm 0.00 W/m2 CLR
00:05 6.3 °C 4.4 °C 1027.5 hPa Calm   4.8 km/h 88% 0.0 mm 0.00 W/m2 OVC
00:10 6.3 °C 4.4 °C 1027.5 hPa WNW 11.1 km/h 4.8 km/h 88% 0.0 mm 0.00 W/m2 OVC
00:15 6.2 °C 4.3 °C 1027.5 hPa NW 1.6 km/h 11.3 km/h 88% 0.0 mm 0.00 W/m2 OVC
00:20 6.2 °C 4.3 °C 1027.5 hPa NNW 1.6 km/h 4.8 km/h 88% 0.0 mm 0.00 W/m2 OVC
00:25 6.2 °C 4.4 °C 1027.5 hPa NNW 5.6 km/h 1.8 km/h 88% 0.0 mm 0.00 W/m2 OVC
00:30 6.3 °C 4.4 °C 1027.5 hPa NNW 1.6 km/h 6.4 km/h 88% 0.0 mm 0.00 W/m2 OVC
00:35 6.3 °C 4.5 °C 1027.5 hPa Calm   6.4 km/h 88% 0.0 mm 0.00 W/m2 OVC
00:40 6.4 °C 4.6 °C 1027.4 hPa Calm   3.2 km/h 88% 0.0 mm 0.00 W/m2 OVC
00:45 6.5 °C 4.5 °C 1027.3 hPa Calm     87% 0.0 mm 0.00 W/m2 OVC
00:50 6.6 °C 4.6 °C 1027.2 hPa Calm     87% 0.0 mm 0.00 W/m2 OVC
00:55 6.6 °C 4.6 °C 1027.1 hPa Calm     87% 0.0 mm 0.00 W/m2 OVC
01:00 6.7 °C 4.7 °C 1027.1 hPa Calm     87% 0.0 mm 0.00 W/m2 OVC
01:05 6.7 °C 4.5 °C 1027.0 hPa Calm     86% 0.0 mm 0.00 W/m2 OVC
01:10 6.6 °C 4.4 °C 1026.9 hPa Calm     86% 0.0 mm 0.00 W/m2 OVC
01:15 6.6 °C 4.4 °C 1026.9 hPa Calm     86% 0.0 mm 0.00 W/m2 OVC
01:20 6.6 °C 4.4 °C 1026.8 hPa Calm     86% 0.0 mm 0.00 W/m2 OVC
01:25 6.6 °C 4.4 °C 1026.8 hPa Calm     86% 0.0 mm 0.00 W/m2 OVC
01:30 6.4 °C 4.3 °C 1026.8 hPa Calm     86% 0.0 mm 0.00 W/m2 OVC
Weerstation Assen

© 2009 - 2019 Weerstation Assen
alle rechten voorbehouden
www.weerstation-assen.nl

Baseer nooit belangrijke beslissingen op deze of andere weergegevens verkregen via Internet.
Weerstation Assen op Facebook
Weerstation Assen op Twitter